Wind_Speed
13 13 13 12 11 11 10 10 9 10 9 8 8 9 11 14 14 13 12 4 6 2 6 11 8 5 10 8 6 8 14 17 12 12 12 10 9 12 12 12 12 14 14 13 12
15 15 15 13 13 12 12 10 10 10 11 11 10 8 10 11 13 16 13 10 9 9 11 14 14 10 11 11 10 15 16 15 14 14 14 11 7 7 11 15 13 11 11 13 12
19 18 17 17 16 15 13 11 11 12 11 11 12 12 8 8 10 13 16 13 12 13 15 16 16 12 11 12 15 21 14 15 13 11 14 13 12 11 13 14 12 12 11 13 15
22 21 21 21 20 17 15 13 11 12 12 10 11 13 11 6 6 9 13 15 16 10 11 8 10 13 12 15 19 24 17 12 15 13 13 14 16 13 10 12 12 11 12 14 15
26 25 24 23 23 23 20 17 15 14 13 12 11 13 12 5 3 8 9 11 17 15 10 11 12 17 16 18 19 22 20 17 18 12 10 9 14 15 13 12 12 11 12 13 13
29 29 28 26 25 25 24 22 20 19 18 16 14 14 15 5 8 9 8 10 11 17 13 12 15 23 23 22 22 21 18 18 16 15 9 7 9 13 13 11 10 12 12 14 15
29 29 27 25 26 27 27 26 26 25 23 22 19 18 20 10 11 11 5 7 11 15 18 18 21 20 23 25 26 22 18 17 17 12 10 8 4 5 10 9 8 14 15 15 15
30 29 28 25 25 25 26 26 27 26 26 26 25 22 25 20 15 16 9 10 9 12 21 21 22 23 25 25 27 24 21 21 15 13 16 11 7 1 5 4 10 14 16 15 14
34 35 34 33 32 31 30 29 28 27 27 27 27 26 27 28 20 19 17 15 10 11 14 21 22 19 22 23 25 25 22 20 19 21 15 3 2 5 7 8 14 16 13 14 14
38 38 40 39 38 36 36 33 32 31 29 28 28 28 28 29 25 21 26 17 16 15 12 12 17 21 20 21 20 21 21 20 20 18 16 8 11 12 9 10 15 16 13 13 15
41 41 43 44 44 42 41 39 38 36 33 31 28 29 29 30 29 28 26 25 19 15 8 11 13 11 20 20 19 20 26 24 21 20 17 10 16 18 15 15 15 17 16 14 14
48 47 46 47 48 47 46 46 46 43 38 36 34 28 30 32 32 31 26 26 22 17 19 13 4 8 17 23 23 23 29 25 23 22 20 17 19 17 13 16 20 20 19 16 15
52 51 50 51 51 52 51 50 49 49 47 39 40 36 37 35 34 31 30 28 23 24 21 18 15 16 18 22 26 28 27 30 27 27 24 22 22 19 17 11 17 20 24 23 19
54 55 56 53 55 57 56 55 54 52 53 47 44 45 41 42 38 33 33 32 30 25 26 25 23 19 18 20 27 30 29 31 33 32 29 25 25 25 23 20 14 21 20 23 22
59 58 57 56 56 56 60 59 58 57 55 55 50 48 45 45 43 39 34 36 33 30 30 20 23 20 18 12 24 25 29 31 33 38 36 30 27 25 29 25 17 17 20 22 23
63 64 64 63 61 59 59 60 61 60 62 58 54 48 46 44 46 45 44 41 37 36 37 33 32 33 22 25 23 27 34 35 37 38 43 28 27 30 33 19 20 18 21 23 24
69 67 65 65 64 64 64 62 61 63 64 62 60 56 49 46 44 42 45 47 45 42 42 39 36 31 32 32 29 29 35 38 42 44 33 30 36 23 27 28 24 24 23 26 26
74 72 72 72 70 65 64 65 66 66 66 66 63 61 53 51 51 44 43 44 47 47 46 40 41 36 30 29 26 27 30 34 36 26 35 39 23 15 24 25 25 31 27 31 31
59 63 71 73 74 72 68 65 67 69 68 66 65 64 60 55 52 49 50 46 43 47 48 46 46 42 38 31 32 32 37 23 34 34 32 28 15 15 26 23 24 27 31 32 32
54 51 49 51 60 69 70 66 65 69 70 71 69 68 65 61 55 55 53 52 52 48 49 47 50 45 41 40 40 40 34 37 39 39 32 23 15 12 16 23 29 31 32 30 31
56 50 45 43 41 45 55 58 58 65 69 72 74 72 69 65 61 59 60 58 55 53 53 48 51 51 49 48 44 42 43 41 37 36 33 25 12 8 14 24 31 29 24 26 24
52 45 39 42 40 32 33 41 50 54 65 70 76 77 75 70 65 63 62 63 62 58 56 56 54 52 52 52 47 44 43 44 44 39 30 29 21 13 13 20 33 38 34 34 30
48 41 38 38 34 25 23 23 29 39 56 65 72 78 79 74 69 68 67 66 66 65 61 60 61 58 54 55 54 52 50 49 47 43 39 36 23 17 12 21 28 36 36 32 30
46 41 35 36 33 23 18 19 21 25 42 55 64 73 76 76 72 71 71 70 69 69 67 66 65 61 58 57 56 55 54 53 52 49 40 36 31 23 17 16 23 30 34 35 34
45 41 33 32 32 26 18 16 16 15 24 38 47 62 72 76 74 74 75 75 74 73 72 71 71 67 63 61 61 60 57 56 55 49 48 37 36 28 22 21 24 33 37 40 39
44 41 35 29 30 25 19 15 12 11 8 22 21 35 44 63 76 75 78 78 79 79 78 77 75 73 71 68 64 63 62 61 58 55 52 44 42 32 25 25 28 29 35 40 42
40 41 35 28 28 25 19 15 13 10 10 14 27 31 24 48 59 76 78 82 81 83 83 81 79 77 75 73 71 68 63 63 62 58 54 50 44 35 30 29 26 30 31 34 39
Wind_Direction
291 295 300 301 300 297 297 300 306 304 297 308 310 261 263 253 241 234 239 220 295 182 192 219 207 179 201 189 132 66 153 147 155 148 135 140 164 141 154 166 162 158 157 168 175
285 285 285 286 288 290 286 287 291 298 298 292 302 300 263 261 252 247 239 233 222 217 202 196 208 187 194 191 158 142 138 148 144 136 138 131 122 144 150 155 155 167 169 166 173
281 278 279 276 278 277 276 276 280 281 283 284 291 292 295 274 265 253 252 234 230 226 220 217 209 191 186 187 159 159 163 161 154 149 147 136 131 151 161 161 157 154 165 176 181
279 275 271 270 271 271 271 270 270 271 270 267 274 284 286 289 286 265 259 242 231 237 233 223 205 192 185 187 164 162 174 180 178 171 166 151 141 140 156 151 152 152 155 175 182
282 275 270 269 268 266 264 268 268 262 264 263 259 265 273 295 301 261 255 246 232 234 226 211 190 190 193 196 185 182 187 195 194 192 190 173 157 134 133 143 145 153 155 170 165
281 278 272 269 267 264 262 262 260 260 257 257 253 253 260 244 262 259 253 239 232 229 218 214 203 194 197 199 198 188 181 186 183 171 185 154 157 152 141 131 137 139 156 154 154
282 277 274 270 267 265 265 263 261 258 258 253 252 249 258 241 260 256 251 270 241 218 215 210 220 214 201 201 201 197 174 174 171 175 145 114 138 144 142 108 124 131 143 143 153
287 280 272 269 268 268 267 266 264 260 257 254 250 249 254 250 250 263 237 239 239 228 218 219 223 217 210 207 202 193 180 174 181 171 147 131 124 197 149 146 152 131 141 150 161
284 282 277 273 271 270 267 264 262 261 258 254 251 247 248 258 240 251 254 242 244 233 235 224 223 225 223 216 210 196 182 181 182 179 158 153 172 219 202 200 151 134 143 153 166
279 278 278 274 271 270 268 267 266 262 257 254 249 248 246 248 252 241 255 248 242 242 236 240 234 224 224 229 232 211 191 192 195 203 209 219 227 214 216 201 165 145 149 159 172
277 276 274 273 272 271 265 263 266 264 260 256 249 246 243 245 246 248 245 251 247 250 237 231 229 223 231 233 227 217 198 199 203 214 210 208 209 216 231 197 177 159 156 158 170
277 275 272 271 270 268 266 265 266 262 260 256 254 247 244 240 240 243 246 250 250 248 239 234 118 197 219 222 214 217 204 206 213 223 214 200 197 214 240 222 195 171 164 155 161
282 277 273 271 268 265 265 263 262 262 261 256 254 246 250 240 238 238 239 243 240 239 236 232 211 213 208 206 209 209 209 209 220 230 226 217 207 213 226 248 224 202 173 163 164
284 281 278 275 269 266 261 260 260 259 260 255 251 250 242 247 239 239 240 239 238 237 236 228 225 222 212 209 205 210 205 213 218 232 239 232 213 208 214 232 230 213 193 175 172
279 280 278 275 272 268 263 260 257 257 258 257 252 246 244 243 245 241 239 240 238 238 237 238 233 234 223 215 211 203 213 211 218 229 237 237 234 205 213 214 221 216 208 190 181
281 276 273 270 268 265 264 262 258 256 254 254 254 249 245 242 241 241 241 239 236 231 231 225 220 223 215 210 207 201 208 213 217 227 239 232 242 205 210 203 208 217 214 205 186
284 278 273 266 265 263 260 258 256 253 252 251 251 250 245 242 239 238 237 236 237 235 232 228 223 222 217 219 214 207 207 215 220 227 248 236 240 190 204 205 203 214 224 216 193
285 278 272 268 265 260 255 254 252 251 248 249 248 247 245 241 239 236 236 232 228 233 234 231 232 229 225 226 233 231 226 227 227 240 240 243 239 192 188 197 209 223 213 213 201
305 292 277 267 260 258 254 249 247 245 247 246 246 246 246 242 236 233 233 233 226 232 233 227 227 225 224 224 230 231 231 233 238 244 245 254 246 234 202 196 200 206 201 208 196
321 310 299 286 271 258 253 248 243 240 240 241 241 241 241 240 235 230 230 230 230 227 228 226 226 224 222 221 219 221 227 227 230 237 244 251 248 186 197 202 206 201 202 201 200
331 318 309 301 297 271 261 253 242 235 232 233 235 237 237 236 233 229 229 230 229 226 226 226 225 223 220 222 220 222 226 228 231 234 242 249 228 219 186 190 205 207 208 218 214
336 325 318 315 314 295 274 257 244 236 231 227 229 231 232 231 229 228 227 228 229 226 226 227 227 226 222 224 224 223 226 233 238 242 254 260 245 233 193 201 199 205 206 215 216
339 330 322 323 323 311 301 280 250 230 228 228 226 225 228 227 225 224 226 225 226 228 225 226 227 224 223 225 224 224 224 229 232 232 233 237 225 226 196 186 207 214 215 221 220
343 338 327 326 326 316 308 306 291 235 223 225 226 225 223 223 221 220 220 222 223 225 225 225 228 227 224 223 225 228 229 230 232 235 237 237 239 212 215 199 199 215 219 220 218
351 347 334 327 323 315 313 310 327 305 234 222 228 229 226 222 217 216 217 217 220 223 224 223 225 227 227 225 226 229 230 234 237 240 241 238 241 237 223 209 200 203 210 219 223
344 350 344 329 322 315 305 300 308 330 293 213 208 224 234 231 223 215 214 214 215 219 222 224 225 225 227 228 226 229 232 235 237 239 243 242 241 238 225 216 210 206 213 219 224
346 349 347 336 326 319 300 290 285 299 297 236 220 202 227 230 229 222 215 214 213 215 221 223 225 226 226 228 229 227 230 235 238 239 242 241 245 238 233 233 215 218 220 218 221
Height
5880 5879 5877 5877 5876 5875 5874 5873 5872 5871 5870 5869 5868 5868 5868 5869 5870 5872 5873 5876 5875 5876 5878 5880 5882 5884 5885 5887 5888 5886 5886 5887 5888 5887 5888 5889 5890 5887 5888 5891 5892 5893 5894 5896 5898
5878 5877 5875 5874 5873 5873 5872 5872 5870 5869 5868 5867 5867 5866 5866 5866 5868 5869 5872 5873 5874 5874 5875 5876 5879 5881 5883 5886 5887 5888 5888 5888 5888 5888 5888 5888 5888 5889 5889 5890 5891 5892 5894 5896 5898
5874 5873 5872 5871 5871 5870 5870 5869 5868 5867 5866 5866 5864 5864 5864 5864 5865 5866 5867 5870 5871 5871 5872 5873 5877 5879 5881 5884 5885 5887 5888 5888 5888 5888 5888 5887 5888 5888 5888 5889 5889 5890 5891 5894 5896
5870 5869 5868 5867 5867 5867 5866 5867 5867 5865 5864 5864 5862 5861 5861 5863 5864 5863 5864 5866 5868 5869 5871 5872 5875 5877 5879 5882 5884 5885 5887 5887 5888 5888 5888 5887 5886 5887 5888 5888 5888 5888 5889 5891 5894
5864 5863 5863 5863 5862 5862 5863 5863 5863 5863 5862 5861 5861 5859 5859 5861 5862 5860 5860 5861 5864 5866 5868 5869 5871 5873 5876 5879 5882 5883 5884 5885 5887 5888 5887 5887 5885 5885 5886 5887 5886 5887 5889 5890 5892
5858 5857 5857 5857 5857 5856 5857 5858 5858 5858 5858 5858 5858 5857 5857 5859 5859 5858 5857 5858 5859 5862 5865 5867 5869 5868 5871 5874 5878 5882 5883 5885 5887 5887 5887 5888 5887 5885 5885 5886 5886 5885 5888 5889 5890
5852 5851 5850 5850 5850 5850 5851 5852 5852 5853 5854 5854 5854 5854 5853 5856 5855 5855 5856 5855 5856 5857 5860 5862 5863 5868 5868 5870 5874 5878 5882 5884 5886 5887 5888 5888 5889 5887 5886 5886 5886 5884 5887 5888 5891
5847 5844 5844 5844 5843 5843 5844 5845 5845 5847 5847 5848 5849 5850 5848 5850 5851 5852 5853 5853 5853 5853 5854 5858 5859 5862 5864 5867 5871 5875 5880 5882 5886 5887 5888 5888 5889 5888 5888 5886 5886 5885 5886 5888 5890
5839 5838 5837 5837 5837 5836 5837 5838 5838 5839 5840 5841 5843 5844 5844 5843 5847 5847 5848 5849 5850 5850 5851 5852 5855 5859 5862 5865 5868 5872 5878 5880 5882 5885 5886 5887 5887 5887 5886 5887 5885 5884 5886 5888 5890
5830 5829 5827 5828 5828 5829 5829 5829 5830 5831 5833 5834 5835 5838 5838 5839 5840 5842 5841 5845 5846 5846 5848 5850 5852 5856 5859 5861 5864 5868 5873 5877 5880 5882 5884 5887 5886 5885 5885 5886 5884 5883 5885 5887 5889
5820 5819 5818 5817 5817 5819 5819 5819 5822 5824 5824 5826 5828 5828 5830 5831 5833 5835 5836 5838 5841 5844 5847 5846 5847 5851 5856 5859 5863 5865 5868 5871 5874 5877 5880 5883 5883 5884 5884 5883 5883 5882 5883 5886 5888
5807 5807 5807 5804 5804 5805 5806 5807 5808 5810 5816 5817 5819 5822 5821 5823 5825 5827 5830 5832 5836 5840 5840 5843 5847 5846 5848 5853 5858 5860 5864 5869 5870 5873 5876 5878 5880 5882 5884 5884 5882 5881 5882 5884 5886
5792 5792 5793 5791 5789 5789 5791 5793 5795 5796 5799 5809 5808 5813 5810 5814 5816 5820 5822 5825 5828 5830 5835 5838 5841 5841 5842 5846 5851 5856 5861 5865 5868 5868 5872 5874 5876 5878 5881 5882 5884 5882 5880 5881 5885
5776 5775 5776 5776 5777 5774 5774 5777 5780 5783 5784 5792 5796 5798 5803 5801 5808 5811 5814 5817 5820 5825 5827 5829 5833 5836 5839 5841 5846 5850 5857 5859 5862 5862 5864 5868 5871 5873 5876 5878 5880 5881 5882 5882 5884
5759 5758 5758 5756 5758 5758 5758 5760 5764 5767 5769 5771 5779 5784 5789 5793 5798 5801 5806 5806 5812 5816 5819 5827 5829 5832 5835 5841 5840 5848 5851 5855 5857 5856 5858 5860 5863 5871 5870 5874 5878 5880 5882 5881 5884
5738 5738 5737 5738 5738 5739 5740 5742 5747 5749 5751 5754 5759 5768 5774 5780 5785 5789 5793 5798 5802 5805 5808 5814 5817 5819 5830 5831 5834 5838 5841 5845 5848 5850 5844 5857 5858 5863 5865 5874 5874 5875 5878 5880 5881
5715 5715 5714 5715 5716 5717 5718 5721 5726 5728 5734 5737 5743 5750 5759 5765 5771 5775 5780 5786 5791 5795 5798 5804 5809 5815 5818 5821 5826 5828 5832 5835 5838 5837 5839 5850 5847 5859 5862 5866 5869 5871 5874 5879 5880
5685 5686 5685 5687 5688 5692 5696 5699 5702 5707 5712 5719 5725 5732 5740 5749 5756 5762 5766 5772 5779 5783 5788 5797 5801 5807 5813 5818 5823 5824 5826 5826 5828 5833 5838 5838 5842 5854 5857 5859 5862 5865 5869 5874 5876
5658 5651 5652 5653 5655 5661 5667 5673 5677 5684 5692 5700 5707 5712 5721 5730 5740 5746 5753 5759 5766 5771 5778 5785 5789 5796 5803 5811 5813 5816 5813 5830 5826 5827 5831 5833 5840 5844 5852 5856 5858 5861 5864 5870 5874
5643 5635 5627 5622 5621 5626 5631 5641 5648 5658 5669 5676 5683 5691 5701 5710 5719 5729 5736 5743 5750 5757 5764 5773 5778 5786 5794 5796 5800 5804 5811 5812 5813 5816 5822 5828 5834 5841 5848 5853 5856 5858 5861 5866 5872
5630 5619 5611 5606 5602 5600 5603 5609 5619 5628 5639 5650 5659 5669 5678 5690 5700 5708 5719 5727 5734 5744 5752 5760 5766 5775 5780 5783 5791 5797 5798 5802 5808 5812 5816 5823 5831 5836 5842 5846 5852 5856 5860 5865 5869
5618 5606 5598 5593 5589 5585 5584 5585 5593 5603 5610 5620 5632 5643 5655 5668 5679 5689 5699 5709 5718 5728 5737 5746 5753 5762 5770 5775 5783 5789 5793 5797 5799 5808 5815 5818 5824 5831 5837 5841 5844 5850 5856 5859 5863
5613 5600 5591 5585 5579 5575 5572 5571 5574 5580 5588 5598 5607 5617 5630 5645 5659 5669 5679 5691 5701 5711 5722 5730 5737 5747 5757 5764 5770 5775 5782 5787 5791 5799 5803 5809 5818 5825 5831 5835 5840 5844 5850 5855 5858
5607 5595 5586 5578 5573 5569 5567 5565 5563 5565 5571 5576 5583 5595 5605 5620 5635 5647 5660 5672 5683 5694 5704 5714 5722 5733 5747 5755 5757 5764 5771 5777 5781 5787 5799 5802 5811 5821 5827 5832 5835 5838 5843 5847 5851
5600 5590 5581 5573 5567 5563 5562 5560 5558 5556 5559 5565 5571 5575 5586 5596 5613 5626 5639 5652 5664 5675 5686 5697 5707 5718 5730 5739 5747 5753 5760 5765 5771 5782 5785 5802 5804 5813 5820 5824 5827 5830 5834 5839 5843
5596 5586 5577 5569 5563 5559 5556 5556 5554 5553 5553 5556 5561 5566 5570 5578 5591 5606 5619 5632 5645 5656 5667 5678 5690 5702 5714 5724 5735 5742 5749 5754 5762 5771 5776 5789 5794 5807 5813 5816 5820 5824 5827 5830 5836
5593 5584 5573 5565 5558 5553 5551 5550 5550 5550 5549 5549 5552 5556 5560 5563 5571 5584 5600 5613 5627 5638 5649 5661 5674 5684 5698 5707 5718 5729 5742 5746 5751 5761 5769 5776 5787 5800 5808 5810 5816 5818 5820 5824 5829